[Iaude] MPEC U13: 2023 TV15 [a=2.37,e=0.57,i=5.4,H=23.1]

mpec at marsden.cfa.harvard.edu mpec at marsden.cfa.harvard.edu
Mon Oct 16 09:30:41 EDT 2023


M.P.E.C. 2023-U13                              Issued 2023 October 16, 13:29 UT

     The Minor Planet Electronic Circulars contain information on unusual
         minor planets, routine data on comets and natural satellites,
         and occasional editorial announcements.  They are published
    on behalf of Division F of the International Astronomical Union by the
          Minor Planet Center, Smithsonian Astrophysical Observatory,
                          Cambridge, MA 02138, U.S.A.
			  
             Prepared using the Tamkin Foundation Computer Network

                              MPC at CFA.HARVARD.EDU
            URL https://www.minorplanetcenter.net/    ISSN 1523-6714

                                   2023 TV15                                    


Observations:
     K23T15V 1C2023 10 12.14696 21 51 12.72 +09 00 27.9          20.8 GVEU013G96
     K23T15V 1C2023 10 12.15737 21 51 17.24 +09 00 56.6          20.6 GVEU013G96
     K23T15V 1C2023 10 12.16261 21 51 19.52 +09 01 11.1          21.1 GVEU013G96
     K23T15V* C2023 10 15.23053522 13 13.150+11 06 21.15         21.14wXEU013F52
     K23T15V  C2023 10 15.24271622 13 17.827+11 06 48.01         21.90wXEU013F52
     K23T15V  C2023 10 15.25502222 13 22.571+11 07 15.00         21.43wXEU013F52
     K23T15V  C2023 10 15.34807222 13 58.352+11 10 38.26         21.38GVEU013F51
     K23T15V  C2023 10 15.34871222 13 58.594+11 10 39.66         21.26GVEU013F51
     K23T15V KC2023 10 15.35294822 13 58.840+11 10 36.30         21.77GVEU013I52
     K23T15V KC2023 10 15.35836122 14 00.949+11 10 47.46         20.75GVEU013I52
     K23T15V KC2023 10 15.36377922 14 03.167+11 10 59.16         21.30GVEU013I52
     K23T15V KC2023 10 15.36918722 14 05.298+11 11 11.08         21.00GVEU013I52
     K23T15V KC2023 10 16.08568822 18 52.229+11 36 33.23         20.72GVEU013I52
     K23T15V KC2023 10 16.08738522 18 52.981+11 36 37.66         21.24GVEU013I52
     K23T15V KC2023 10 16.08908122 18 53.654+11 36 40.82         20.99GVEU013I52
     K23T15V KC2023 10 16.09078222 18 54.317+11 36 43.34         21.81GVEU013I52
     K23T15V KC2023 10 16.09161322 18 53.68 +11 36 42.9          20.8 VuEU013H21
     K23T15V KC2023 10 16.09720422 18 55.79 +11 36 54.4          20.9 VuEU013H21
     K23T15V KC2023 10 16.10279822 18 57.88 +11 37 06.1          20.8 VuEU013H21
     K23T15V 3C2023 10 16.23973522 19 51.940+11 42 00.09         21.23GVEU013T14
     K23T15V 3C2023 10 16.24071622 19 52.304+11 42 02.10         21.51GVEU013T14
     K23T15V 3C2023 10 16.24169522 19 52.667+11 42 04.11         21.58GVEU013T14

Observer details:
F51 Pan-STARRS 1, Haleakala.  Observers J. Bulger, T. Lowe, P. Minguez, A.
    Schultz, I. Smith.  Measurers K. Chambers, T. de Boer, J. Fairlamb, H.
    Gao, M. Huber, C.-C. Lin, E. Magnier, Y. Ramanjooloo, R. Wainscoat, R.
    Weryk.  1.8-m Ritchey-Chretien + CCD.
F52 Pan-STARRS 2, Haleakala.  Observers J. Bulger, T. Lowe, P. Minguez, A.
    Schultz, I. Smith.  Measurers K. Chambers, T. de Boer, J. Fairlamb, H.
    Gao, M. Huber, C.-C. Lin, E. Magnier, Y. Ramanjooloo, R. Wainscoat, R.
    Weryk.  1.8-m Ritchey-Chretien + CCD.
G96 Mt. Lemmon Survey.  Observer D. Rankin.  Measurers B. Gray, D. Rankin, F.
    C. Shelly.  1.5-m reflector + 10K CCD.
H21 Astronomical Research Observatory, Westfield.  Observer R. Holmes.
    Measurers T. Linder, R. Holmes, L. Horn.  0.76-m f/3.0 astrograph + CCD.
I52 Steward Observatory, Mt. Lemmon Station.  Observer J. K. Hogan.  Measurers
    E. C. Beshore, D. Fay, J. B. Fazekas, D. C. Fuls, A. R. Gibbs, A. D.
    Grauer, H. Groeller, J. K. Hogan, R. A. Kowalski, S. M. Larson, G. J.
    Leonard, D. Rankin, R. L. Seaman, F. C. Shelly, K. W. Wierzchos.  1.0-m
    prime focus + CCD.
T14 Canada-France-Hawaii Telescope, Maunakea.  Observers R. Wainscoat, H.
    Januszewski, T. Burdullis.  Measurers R. Weryk, R. Wainscoat.  3.6-m
    Canada-France-Hawaii Telescope + CCD.

Orbital elements:
2023 TV15                                                Earth MOID = 0.0050 AU
Epoch 2023 Sept. 13.0 TT = JDT 2460200.5                Veres                   
M   2.50580              (2000.0)            P               Q                  
n   0.26995812     Peri.  353.28843     +0.85684090     +0.51411716             
a   2.3710376      Node   335.65150     -0.46855085     +0.74505116             
e   0.5727113      Incl.    5.40325     -0.21513662     +0.42494978             
P   3.65           H   23.13          G   0.15           U   9                  
Residuals in seconds of arc
231012 G96  0.2+  0.5-    231015 I52  0.3-  0.3+    231016 H21  1.0+  0.8+
231012 G96  0.1-  0.0     231015 I52  0.8-  0.1-    231016 H21  1.1+  0.7+
231012 G96  0.1-  0.3+    231015 I52  0.3+  0.0     231016 H21  1.0+  0.8+
231015 F52  0.3+  0.2+    231015 I52  0.2+  0.4+    231016 T14  0.0   0.0
231015 F52  0.1-  0.1+    231016 I52 (2.2-  0.4-)   231016 T14  0.0   0.0
231015 F52  0.1-  0.1-    231016 I52  0.5-  0.4+    231016 T14  0.0   0.0
231015 F51  0.1+  0.1+    231016 I52  0.0   0.1+
231015 F51  0.1+  0.1+    231016 I52  0.4+  1.0-

Ephemeris:
2023 TV15                a,e,i = 2.37, 0.57, 5                   q = 1.0131
Date    TT    R. A. (2000) Decl.     Delta      r    Elong.  Phase     V
2023 09 16    17 39 58.2 -18 28 53   0.1592  1.0255    92.7    78.4    21.9
...
2023 10 01    20 10 19.0 -02 19 44   0.1440  1.0718   115.7    57.3    21.1
...
2023 10 09    21 26 01.4 +06 23 54   0.1655  1.1086   127.9    45.3    21.2
...
2023 10 15    22 11 38.3 +10 57 57   0.1936  1.1406   134.1    38.9    21.4
2023 10 16    22 18 17.3 +11 33 51   0.1991  1.1463   134.8    38.1    21.4
2023 10 17    22 24 41.1 +12 07 16   0.2048  1.1520   135.6    37.3    21.5
...
2023 10 23    22 58 15.8 +14 43 31   0.2430  1.1883   138.6    33.6    21.8
...
2023 10 31    23 32 53.4 +16 47 39   0.3030  1.2406   140.0    30.9    22.3
...
2023 11 15    00 19 03.6 +18 33 28   0.4401  1.3473   137.6    29.7    23.3

M. P. C. Staff               (C) Copyright 2023 MPC           M.P.E.C. 2023-U13





More information about the Iaude mailing list